Location: Sunny Point
(33.0946°N, 85.0574°W)
Time: 07:25:33
(UTC+00:00)

Envisat - Pass Details

Date: 26 May 2024
Orbit: 762 x 764 km, 98.3° (Epoch: 16 June)

Event Time Altitude Azimuth Distance (km) Brightness Sun altitude
Rises 09:42:16 0° 359° (N) 3,230 6.7 -10.3°
Reaches altitude 10° 09:44:50 10° 348° (NNW) 2,300 5.8 -9.8°
Maximum altitude 09:49:07 29° 290° (WNW) 1,386 4.0 -9.1°
Drops below altitude 10° 09:53:24 10° 232° (SW) 2,289 4.8 -8.3°
Enters shadow 09:53:25 10° 232° (SW) 2,295 4.8 -8.3°
